SBS 5

operational
NORAD ID: 19484 Int'l Des: 1988-081 Owner: STLC Country: US
HEOCIRCULAR

About SBS 5

Description loading...

Live Position

Loading 3D Globe...

Upcoming Passes

Altitude History

Altitude vs Time

uPlot chart will show altitude changes over time

Two-Line Element Set

1 19484U 88081B 26102.08192388 -.00000289 00000-0 00000+0 0 9990
2 19484 14.5912 1.4319 0008007 323.3930 218.6605 0.99793830 45809
Epoch: Apr 12, 2026 • Age: 18 hours

Current Status

Altitude 35943.6 km
Velocity 3.07 km/s
Sub-Earth Point 14.47°N, 47.3°W
Launch Date Sep 8, 1988
Age 37.5 years
Type other

Technical Details

Classification Payload
Mass 703.00 kg
Dry Mass 550.00 kg
Total Mass 1246.00 kg
Length 6.60 m
Diameter 2.20 m
Span 6.60 m
Shape Cyl
Manufacturer HSES
Bus Type HS-376
Phase Status Renamed
Owner/State STLC/US

Large Constellations

Loading constellations...